FENGYUN 1C DEB, 31351

Orbit data source: Space-Track

FENGYUN 1C DEB, 31351 is space debris in SSO originally from a launch on Mon, 10 May 1999 UTC launched from the Taiyaun Space Center, China (TSC). Fengyun 1C debris stems from the Chinese weather satellite Fengyun-1C, which was intentionally destroyed by a Chinese anti-satellite missile in 2007. This event dramatically increased the amount of space debris, with thousands of trackable fragments posing hazards to satellites and human spaceflight. The Fengyun 1C debris cloud has become a focal point in discussions about space sustainability and the need for international regulations to prevent the creation of new debris.

Loading next visibility...
Identifier
31351, 1999-025BRF
Orbit
SSO
Country
Flag of CNCN / PRC
Related business
Manufacturer
Unknown
Mission
Spacecraft
Bus & Motor
Unknown
Mass
Unknown
Launch date (UTC)
1999-05-10 (27 years ago)
Launch vehicle
Unknown
Launch site
Taiyaun Space Center, China (TSC)
Object type
Payload
Rocket body
Debris
Shape & HBR
Unknown shape, 0.1 m
Radar Cross Section
Small (<0.1 m²)

Expand to show TLE details & history
Last TLE update: 2 days ago

TLE from 2 days ago
0 FENGYUN 1C DEB
1 31351U 99025BRF 26164.71623193  .00000145  00000-0  10868-3 0  9995
2 31351  98.8106 151.7483 0091384 256.3565 102.7415 14.07159948639481
Epoch: 2026-06-13T17:11Z
TLE epoch observation values (Epoch: 2026-06-13T17:11:22.438Z)
Latitude
-0.00004°
Longitude
-8.12252°
Altitude
887.184 km
Speed
7.401 km/s
True Right ascension
10h 06m 59s
True Declination
0° 00' 00"
Sunlit
Object was in daylight at epoch
Visualization orbit readout
Latitude
Unknown
Longitude
Unknown
Altitude
Unknown
Speed
Unknown
Apparent Right ascension
Unknown
Apparent Declination
Unknown
Sunlit
N/A
Visualization observer readout
Local Sidereal Time
01:15:08
Azimuth
Unknown
Elevation
Unknown
Doppler factor
Unknown
Orbital elements
Apogee altitude
932.489 km
Perigee altitude
800.085 km
Semi-major axis
7,244.424 km
Eccentricity
0.00914
Inclination
98.8106°
RAAN
151.7483°
Arg. of periapsis
256.3565°
True anomaly
103.76028°
Mean anomaly
102.7415°
Eccentric anomaly
103.25115°
Mean motion
3.51996 °/min
Orbital period
102.27 mins
BSTAR
0.00010868
Loading maneuver chart data...
Computing Atmospheric mass density...
Loading historical data...
Loading historical data...
Loading historical data...
Loading historical data...
Loading historical data...
Loading historical data...
Loading historical data...

Documentation

Showing up to 5 results
|